Location: Unnamed
(54.5186°N, 36.2255°E)
Time: 18:03:20
(UTC+03:00)

ISS - Pass Details

Date: 23 February 2026
Orbit: 416 x 427 km, 51.6° (Epoch: 5 March)

Event Time Altitude Azimuth Distance (km) Brightness Sun altitude
Exits shadow 06:16:03 22° 252° (WSW) 975 -2.5 -12.7°
Maximum altitude 06:17:58 51° 184° (S) 532 -3.3 -12.4°
Drops below altitude 10° 06:21:14 10° 107° (ESE) 1,494 0.4 -12.0°
Sets 06:23:21 0° 102° (ESE) 2,356 1.9 -11.7°
